Terminal Aerodrome Forecast
Issued by NWS

Home | Current Version | Previous Version | Text Only | Print | Product List | Glossary On
Versions: 1 2 3 4 5 6 7 8 9 10 11 12 13 14 15 16 17 18 19 20 21 22
789
FTUS43 KPAH 191720
TAFCGI
TAF
KCGI 191720Z 1918/2018 VRB03KT P6SM SCT010
      TEMPO 1918/1919 4SM BR BKN002
     FM191900 16005KT P6SM SCT025
     FM200000 15004KT P6SM BKN025
     FM200600 14003KT 4SM BR SCT010 BKN250
      TEMPO 2008/2012 2SM BR BKN010
     FM201500 15008KT P6SM BKN020=

USA.gov is the U.S. government's official web portal to all federal, state and local government web resources and services.